Regional Weather Roundup
Issued by NWS

Home | Current Version | Previous Version | Text Only | Print | Product List | Glossary Off
Versions: 1 2 3 4 5 6 7 8 9 10 11 12 13 14 15 16 17 18 19 20 21 22 23 24 25 26 27 28 29 30 31 32 33 34 35 36 37 38 39 40 41 42 43 44 45 46 47 48 49 50

083
ASUS43 KBIS 202002
RWRND

NORTH DAKOTA REGIONAL WEATHER ROUNDUP
NATIONAL WEATHER SERVICE BISMARCK ND
200 PM CST SAT JAN 20 2018

NOTE: "FAIR" INDICATES FEW OR NO CLOUDS BELOW 12,000 FEET WITH NO
SIGNIFICANT WEATHER AND/OR OBSTRUCTIONS TO VISIBILITY.


NDZ001>003-009>011-017-202100-
NORTHWEST NORTH DAKOTA

CITY           SKY/WX    TMP DP  RH WIND       PRES   REMARKS
WILLISTON      SUNNY     31  21  66 W7        29.84F
MINOT          SUNNY     37  24  59 W13       29.78F
MINOT AFB      SUNNY     37  25  63 W13       29.77F
$$

NDZ018>021-031>035-040>046-202100-
SOUTHWEST NORTH DAKOTA

CITY           SKY/WX    TMP DP  RH WIND       PRES   REMARKS
BISMARCK       SUNNY     41  27  57 W14       29.86F
DICKINSON      MOSUNNY   37  25  61 W14       29.83F
GARRISON         N/A     37  25  61 W10       29.82S
HETTINGER ARPT SUNNY     39  26  59 W12       29.88F
$$

NDZ004>008-012>016-024-026-027-054-202100-
NORTHEAST NORTH DAKOTA

CITY           SKY/WX    TMP DP  RH WIND       PRES   REMARKS
GRAND FORKS    FAIR      36  29  75 W9        29.80F
GRND FRKS AFB  FAIR      37  27  66 W10       29.79F
DEVILS LAKE    FAIR      34  26  72 W13       29.79S
$$

NDZ022-023-025-028>030-036>039-047>053-202100-
SOUTHEAST NORTH DAKOTA

CITY           SKY/WX    TMP DP  RH WIND       PRES   REMARKS
FARGO          FAIR      38  31  76 W7        29.83S
JAMESTOWN      SUNNY     40  30  67 W10       29.81F
$$





USA.gov is the U.S. government's official web portal to all federal, state and local government web resources and services.